Weather Service Report


073 
ASUS45 KBOU 250907
RWRCO 

WEATHER ROUNDUP FOR COLORADO
NATIONAL WEATHER SERVICE DENVER/BOULDER CO
300 AM MDT SAT MAR 25 2017

NOTE: "FAIR" INDICATES FEW OR NO CLOUDS BELOW 12000 FEET WITH NO
SIGNIFICANT WEATHER AND/OR OBSTRUCTIONS TO VISIBILITY.

COZ001>005-013-030-031-251000-
...NORTHWEST COLORADO...
  
CITY           SKY/WX    TMP DP  RH WIND       PRES   REMARKS
CRAIG          FAIR      26  21  81 CALM      30.15S                  
HAYDEN         FAIR      34  21  60 E10       30.15S WCI  26          
MEEKER         FAIR      27  22  81 NE5       30.14F WCI  22          
MOUNT WERNER   NOT AVBL                                               
STEAMBOAT SPGS FAIR      30  24  79 CALM      30.16S                  
WALDEN         NOT AVBL                                               
$$

COZ006>008-011-251000-
...WEST CENTRAL VALLEYS...
  
CITY           SKY/WX    TMP DP  RH WIND       PRES   REMARKS
GRAND JUNCTION FAIR      43  30  60 E13       30.11S                  
MONTROSE       FAIR      38  27  64 SE10      30.19S                  
EAGLE          FAIR      31  24  75 E6        30.22S WCI  25          
RIFLE          FAIR      34  26  72 CALM      30.16S                  
DELTA          FAIR      40  27  58 NE7       30.16F                  
NUCLA          FAIR      37  28  70 E12       30.19F                  
$$

COZ017>023-064>068-251000-
...SOUTHWEST COLORADO...
  
CITY           SKY/WX    TMP DP  RH WIND       PRES   REMARKS
DURANGO        FAIR      28  23  81 NE3       30.19R                  
CORTEZ         FAIR      31  27  85 NE7       30.17F WCI  24          
PAGOSA SPRINGS FAIR      32  31  98 CALM      30.21S                  
TELLURIDE      NOT AVBL                                               
WOLF CREEK PAS FAIR      28   5  37 SW14      30.35S WCI  17          
$$

COZ009-010-012-014-032>034-037-058>063-251000-
...CENTRAL COLORADO...
  
CITY           SKY/WX    TMP DP  RH WIND       PRES   REMARKS
ASPEN          FAIR      30  23  75 SW7       30.21R WCI  23          
BUENA VISTA    FAIR      27  19  73 CALM      30.19S                  
COPPER MTN     FAIR      28  14  54 MISG      30.28S                  
BERTHOUD PASS  FAIR      18   7  62 N18G24    30.25F WCI   2          
COTTONWOOD PAS FAIR      36  12  38 SW13      30.21F                  
GUNNISON       FAIR      27  24  89 CALM      30.25R                  
KREMMLING      FAIR      28  21  74 CALM      30.22S                  
LEADVILLE      FAIR      20  15  81 N6        30.23S WCI  12          
MONARCH PASS   FAIR      25  14  63 W24       30.38S WCI   9          
SALIDA         FAIR      37  24  60 N9        30.24F                  
SUNLIGHT       FAIR      25  19  80 S9        30.30R WCI  15          
WILKERSON PASS FAIR      28  10  47 W6        30.26S WCI  22          
$$

COZ069>075-251000-
...SAN LUIS VALLEY/SANGRE DE CRISTO MOUNTAINS...
  
CITY           SKY/WX    TMP DP  RH WIND       PRES   REMARKS
ALAMOSA        FAIR      24  23  96 E6        30.20S WCI  17          
LA VETA PASS   NOT AVBL                                               
SAGUACHE       FAIR      32  23  69 NW13      30.21S WCI  22          
$$

COZ035-036-038>040-251000-
...NORTHERN COLORADO FRONT RANGE...
  
CITY           SKY/WX    TMP DP  RH WIND       PRES   REMARKS
DENVER INTL AP FAIR      33  27  78 S6        30.08S WCI  28          
DMNS CITY PARK   N/A     35  30  80 SE8       30.08S WCI  29          
AURORA         PTCLDY    34  30  83 S10       30.09S WCI  26          
FRONT RANGE AP FAIR      32  30  93 S7        30.09S WCI  26          
ERIE MUNI ARPT FAIR      31  28  89 CALM      30.08F                  
BOULDER MUN AP FAIR      37  30  75 CALM      30.07F                  
CENTENNIAL     FAIR      31  28  89 SE5       30.09S WCI  26          
BROOMFIELD     FAIR      37  30  75 CALM      30.08F                  
FORT COLLINS   FAIR      34  27  75 N5        30.08F WCI  30          
LONGMONT       FAIR      31  26  78 CALM      30.10F                  
$$

COZ041-046-047-076>085-087-088-251000-
...PIKES PEAK/PALMER DIVIDE AND SOUTHERN FOOTHILLS...
  
CITY           SKY/WX    TMP DP  RH WIND       PRES   REMARKS
COLO. SPRINGS  FAIR      31  25  78 N3        30.11F                  
A. F. ACADEMY  FAIR      26  25  99 N10       30.10F WCI  15          
SCHRIEVER AFB  FAIR      33  28  79 W9        30.11F WCI  26          
ELLICOTT         N/A    N/A N/A N/A CALM      30.09F                  
FALCON         FAIR      27  24  91 NW8       30.12F WCI  18          
FORT CARSON    FAIR      31  26  81 NW6       30.10S WCI  25          
LIMON          FAIR      28  26  92 NW7       30.09F WCI  21          
MONUMENT HILL  FAIR      27  21  80 S7        30.12S WCI  19          
TRINIDAD       FAIR      33  28  81 W16       30.12S WCI  23          
$$

COZ042>045-048>051-090-091-251000-
...NORTHEAST COLORADO...
  
CITY           SKY/WX    TMP DP  RH WIND       PRES   REMARKS
GREELEY ARPT   FAIR      25  21  85 N3        30.09F                  
AKRON          FAIR      32  28  85 W7        30.07F WCI  26          
BURLINGTON     FAIR      32  30  92 NW9       30.08S WCI  24          
WRAY           FAIR      32  32 100 W6        30.09R WCI  26          
STERLING       FAIR      30  30 100 CALM      30.07F                  
HOLYOKE        FAIR      34  30  86 W7        30.08S WCI  28          
FORT MORGAN    FAIR      30  27  88 W7        30.09S WCI  23          
$$

COZ086-089-092>099-251000-
...SOUTHEAST COLORADO...
  
CITY           SKY/WX    TMP DP  RH WIND       PRES   REMARKS
PUEBLO         FAIR      30  26  85 W5        30.10S WCI  25          
LA JUNTA       FAIR      36  32  85 W9        30.09S                  
LAMAR          FAIR      28  27  96 SW3       30.07F FOG              
SPRINGFIELD      N/A     28  28 100 NW10      30.07R WCI  19          
$$
  

Return to Home page


Western Regional Climate Center, wrcc@dri.edu